Location: Henham
(51.9333°N, 0.2500°E)
Time: 12:48:55
(UTC+00:00)

STARLINK-54 - Pass Details

Date: 23 October 2019
Orbit: 548 x 551 km, 53.0° (Epoch: 17 November)

Event Time Altitude Azimuth Distance (km) Brightness Sun altitude
Rises 17:20:46 0° 269° (W) 2,717 9.3 -5.6°
Reaches altitude 10° 17:23:01 10° 272° (W) 1,823 7.9 -5.9°
Maximum altitude 17:27:09 75° 358° (N) 572 3.7 -6.5°
Drops below altitude 10° 17:31:18 10° 84° (E) 1,825 5.6 -7.2°
Enters shadow 17:31:29 - 85° (E) 1,895 5.7 -7.2°
